DL8BGD Weather Reports


time (UTC)temp
F
wind
direction
speed
knots
gust
knots
rain 1hr
in
rain 24hr
in
rain mn
in
humidity
%
barometer
mb
20260902185411 64 0 0.0 0.0 0.00 0.00 0.00 69 1025.6
20260902184411 64 0 0.0 0.0 0.00 0.00 0.00 68 1025.5
20260902183411 65 0 0.0 0.0 0.00 0.00 0.00 68 1025.4
20260902182410 65 0 0.0 0.0 0.00 0.00 0.00 67 1025.4
20260902181410 66 0 0.0 0.0 0.00 0.00 0.00 66 1025.1
20260902180409 67 0 0.0 0.0 0.00 0.00 0.00 65 1025.1
20260902175409 67 0 0.0 0.0 0.00 0.00 0.00 64 1024.9
20260902174409 67 0 0.0 0.0 0.00 0.00 0.00 63 1024.8
20260902173408 68 0 0.0 0.0 0.00 0.00 0.00 62 1024.6
20260902171407 69 0 0.0 0.0 0.00 0.00 0.00 60 1024.4
20260902170406 70 0 0.0 0.0 0.00 0.00 0.00 58 1024.4
20260902165406 71 0 0.0 0.0 0.00 0.00 0.00 57 1024.4
20260902164406 71 0 0.0 0.0 0.00 0.00 0.00 55 1024.3
20260902163405 72 0 0.0 0.0 0.00 0.00 0.00 52 1024.2
20260902162405 72 0 0.0 0.0 0.00 0.00 0.00 52 1024.2
20260902161405 72 0 0.0 0.0 0.00 0.00 0.00 50 1024.2
20260902160404 73 0 0.0 0.0 0.00 0.00 0.00 50 1024.2
20260902155404 73 0 0.0 0.0 0.00 0.00 0.00 48 1024.1
20260902154404 73 0 0.0 0.0 0.00 0.00 0.00 46 1024.2
20260902153403 74 0 0.0 0.0 0.00 0.00 0.00 47 1024.0
20260902152403 74 0 0.0 0.0 0.00 0.00 0.00 45 1024.0
20260902151402 75 0 0.0 0.0 0.00 0.00 0.00 45 1024.0
20260902150402 75 0 0.0 0.0 0.00 0.00 0.00 45 1024.1
20260902145402 75 0 0.0 0.0 0.00 0.00 0.00 45 1024.2
20260902144403 75 0 0.0 0.0 0.00 0.00 0.00 45 1024.2
20260902143400 75 0 0.0 0.0 0.00 0.00 0.00 43 1024.3
20260902142400 75 0 0.0 0.0 0.00 0.00 0.00 43 1024.4
20260902141359 75 0 0.0 0.0 0.00 0.00 0.00 42 1024.4
20260902140359 75 0 0.0 0.0 0.00 0.00 0.00 44 1024.3
20260902135359 75 0 0.0 0.0 0.00 0.00 0.00 45 1024.3
20260902134358 74 0 0.0 0.0 0.00 0.00 0.00 44 1024.4
20260902133358 74 0 0.0 0.0 0.00 0.00 0.00 43 1024.4
20260902132357 73 0 0.0 0.0 0.00 0.00 0.00 44 1024.5
20260902131357 74 0 0.0 0.0 0.00 0.00 0.00 43 1024.6
20260902130357 74 0 0.0 0.0 0.00 0.00 0.00 43 1024.6
20260902125356 75 0 0.0 0.0 0.00 0.00 0.00 42 1024.6
20260902124356 75 0 0.0 0.0 0.00 0.00 0.00 42 1024.6
20260902123356 76 0 0.0 0.0 0.00 0.00 0.00 41 1024.6
20260902122356 77 0 0.0 0.0 0.00 0.00 0.00 40 1024.6
20260902121354 76 0 0.0 0.0 0.00 0.00 0.00 41 1024.7
20260902120354 76 0 0.0 0.0 0.00 0.00 0.00 41 1024.8